QPF
0.02 0.02 0.02 0.02 0.02 0.02 0.03 0.04 0.05 0.06 0.05 0.06 0.07 0.08 0.09 0.08 0.07 0.07 0.05 0.04 0.04 0.04 0.04 0.03 0.03 0.02 0.02 0.02 0.03 0.04 0.06 0.05 0.05 0.04 0.03 0.02 0.02 0.02 0.02 0.02 0.02 0.02 0.02
0.02 0.02 0.02 0.02 0.02 0.02 0.03 0.03 0.05 0.07 0.06 0.06 0.06 0.07 0.09 0.10 0.10 0.09 0.07 0.05 0.04 0.04 0.03 0.03 0.03 0.03 0.03 0.03 0.03 0.03 0.04 0.05 0.05 0.05 0.04 0.03 0.03 0.03 0.03 0.03 0.02 0.02 0.02
0.02 0.02 0.02 0.02 0.02 0.02 0.02 0.03 0.05 0.07 0.07 0.06 0.06 0.05 0.06 0.07 0.09 0.11 0.10 0.08 0.06 0.04 0.03 0.03 0.03 0.03 0.03 0.03 0.04 0.03 0.03 0.03 0.04 0.04 0.04 0.03 0.03 0.03 0.03 0.03 0.03 0.02 0.02
0.03 0.02 0.02 0.02 0.02 0.02 0.03 0.03 0.04 0.06 0.08 0.09 0.07 0.05 0.04 0.03 0.05 0.07 0.09 0.10 0.09 0.07 0.04 0.02 0.03 0.03 0.03 0.03 0.04 0.04 0.04 0.03 0.03 0.04 0.05 0.04 0.03 0.03 0.03 0.03 0.03 0.03 0.02
0.03 0.02 0.02 0.02 0.02 0.02 0.03 0.03 0.03 0.05 0.07 0.09 0.09 0.07 0.05 0.04 0.03 0.03 0.05 0.07 0.08 0.09 0.07 0.04 0.03 0.03 0.04 0.05 0.05 0.05 0.04 0.05 0.04 0.04 0.04 0.05 0.04 0.03 0.03 0.03 0.03 0.03 0.02
0.03 0.03 0.02 0.02 0.02 0.02 0.03 0.03 0.03 0.04 0.05 0.07 0.08 0.07 0.06 0.05 0.04 0.04 0.04 0.05 0.06 0.07 0.08 0.07 0.05 0.04 0.04 0.06 0.06 0.06 0.05 0.05 0.05 0.05 0.05 0.04 0.04 0.03 0.03 0.03 0.03 0.03 0.03
0.03 0.03 0.02 0.02 0.02 0.02 0.03 0.03 0.03 0.03 0.04 0.05 0.06 0.06 0.05 0.04 0.04 0.04 0.04 0.04 0.04 0.04 0.05 0.05 0.06 0.05 0.05 0.04 0.05 0.06 0.06 0.06 0.05 0.04 0.04 0.04 0.04 0.04 0.03 0.03 0.02 0.02 0.03
0.04 0.03 0.02 0.02 0.03 0.02 0.02 0.03 0.02 0.03 0.03 0.04 0.04 0.05 0.04 0.03 0.03 0.04 0.05 0.04 0.03 0.03 0.03 0.04 0.04 0.04 0.05 0.05 0.05 0.04 0.04 0.05 0.04 0.03 0.03 0.03 0.03 0.04 0.04 0.03 0.03 0.03 0.03
0.03 0.03 0.02 0.02 0.03 0.02 0.02 0.02 0.02 0.02 0.02 0.02 0.03 0.04 0.04 0.04 0.04 0.04 0.05 0.04 0.03 0.03 0.02 0.03 0.03 0.03 0.04 0.05 0.06 0.05 0.05 0.05 0.05 0.05 0.04 0.05 0.05 0.05 0.05 0.05 0.05 0.04 0.04
0.03 0.03 0.03 0.02 0.02 0.02 0.02 0.01 0.02 0.02 0.02 0.02 0.02 0.02 0.03 0.03 0.04 0.04 0.05 0.05 0.06 0.05 0.03 0.02 0.03 0.03 0.04 0.05 0.05 0.05 0.05 0.05 0.05 0.05 0.05 0.05 0.06 0.06 0.05 0.04 0.05 0.04 0.03
0.03 0.03 0.02 0.02 0.02 0.02 0.02 0.01 0.01 0.01 0.01 0.01 0.01 0.01 0.02 0.02 0.03 0.04 0.04 0.06 0.07 0.07 0.06 0.04 0.03 0.04 0.04 0.04 0.04 0.04 0.05 0.05 0.07 0.08 0.06 0.05 0.05 0.06 0.06 0.06 0.05 0.04 0.03
0.03 0.03 0.02 0.02 0.02 0.01 0.02 0.02 0.02 0.01 0.01 0.01 0.01 0.01 0.01 0.01 0.02 0.03 0.03 0.04 0.06 0.08 0.07 0.06 0.05 0.05 0.04 0.04 0.04 0.05 0.06 0.07 0.08 0.10 0.08 0.06 0.05 0.05 0.05 0.05 0.05 0.05 0.04
0.03 0.03 0.04 0.03 0.02 0.01 0.02 0.02 0.02 0.01 0.01 0.01 0.01 0.01 0.01 0.01 0.01 0.02 0.03 0.03 0.04 0.05 0.06 0.06 0.07 0.06 0.05 0.04 0.04 0.05 0.06 0.07 0.09 0.10 0.09 0.07 0.05 0.04 0.04 0.04 0.04 0.04 0.04
0.03 0.03 0.03 0.03 0.02 0.02 0.02 0.02 0.02 0.02 0.02 0.01 0.02 0.02 0.01 0.01 0.01 0.02 0.03 0.03 0.03 0.03 0.04 0.04 0.05 0.07 0.07 0.05 0.05 0.06 0.06 0.06 0.08 0.10 0.09 0.08 0.06 0.06 0.04 0.03 0.04 0.04 0.04
0.02 0.02 0.02 0.03 0.03 0.03 0.02 0.02 0.02 0.02 0.02 0.03 0.03 0.03 0.03 0.03 0.03 0.04 0.04 0.04 0.03 0.04 0.04 0.04 0.05 0.06 0.07 0.07 0.06 0.06 0.07 0.07 0.08 0.09 0.10 0.09 0.08 0.06 0.05 0.04 0.03 0.03 0.03
0.02 0.02 0.02 0.03 0.03 0.03 0.02 0.02 0.02 0.02 0.02 0.02 0.02 0.03 0.03 0.03 0.03 0.04 0.04 0.04 0.04 0.05 0.05 0.05 0.05 0.06 0.06 0.07 0.07 0.07 0.06 0.07 0.07 0.08 0.09 0.10 0.08 0.07 0.06 0.05 0.04 0.03 0.03
0.03 0.03 0.03 0.03 0.04 0.04 0.03 0.02 0.03 0.02 0.02 0.02 0.01 0.02 0.02 0.03 0.03 0.04 0.04 0.04 0.04 0.05 0.06 0.05 0.05 0.05 0.06 0.06 0.07 0.07 0.06 0.06 0.07 0.07 0.08 0.08 0.08 0.07 0.07 0.06 0.05 0.04 0.04
0.02 0.03 0.03 0.03 0.04 0.04 0.04 0.03 0.03 0.02 0.02 0.02 0.02 0.03 0.03 0.03 0.03 0.03 0.03 0.04 0.05 0.05 0.05 0.05 0.05 0.05 0.06 0.06 0.07 0.07 0.07 0.06 0.07 0.07 0.07 0.07 0.07 0.06 0.06 0.06 0.05 0.05 0.04
0.02 0.02 0.03 0.03 0.03 0.04 0.04 0.05 0.04 0.03 0.03 0.03 0.03 0.03 0.04 0.04 0.03 0.03 0.03 0.03 0.04 0.05 0.05 0.05 0.05 0.05 0.06 0.06 0.06 0.06 0.06 0.07 0.07 0.07 0.06 0.06 0.06 0.05 0.05 0.06 0.05 0.05 0.05
0.02 0.03 0.03 0.03 0.03 0.03 0.04 0.04 0.04 0.03 0.03 0.03 0.03 0.03 0.04 0.04 0.04 0.04 0.04 0.04 0.04 0.04 0.04 0.05 0.05 0.05 0.06 0.07 0.07 0.07 0.07 0.07 0.07 0.07 0.07 0.06 0.06 0.05 0.05 0.06 0.05 0.05 0.05
0.02 0.02 0.02 0.02 0.02 0.02 0.02 0.03 0.03 0.03 0.03 0.03 0.03 0.04 0.05 0.05 0.04 0.04 0.04 0.04 0.04 0.04 0.05 0.05 0.04 0.05 0.06 0.06 0.07 0.07 0.07 0.07 0.07 0.08 0.08 0.07 0.06 0.06 0.06 0.06 0.06 0.05 0.05
0.02 0.02 0.02 0.02 0.03 0.03 0.02 0.02 0.02 0.02 0.02 0.02 0.03 0.03 0.03 0.04 0.04 0.04 0.04 0.05 0.04 0.04 0.04 0.05 0.05 0.05 0.05 0.06 0.06 0.06 0.06 0.06 0.06 0.07 0.07 0.07 0.07 0.06 0.06 0.06 0.06 0.06 0.06
0.02 0.02 0.02 0.02 0.02 0.03 0.02 0.02 0.02 0.02 0.02 0.02 0.02 0.02 0.02 0.03 0.03 0.03 0.04 0.04 0.04 0.04 0.04 0.04 0.05 0.04 0.05 0.05 0.06 0.07 0.07 0.06 0.06 0.06 0.06 0.06 0.06 0.06 0.06 0.06 0.06 0.06 0.06
0.02 0.02 0.02 0.02 0.02 0.02 0.02 0.02 0.02 0.02 0.02 0.02 0.02 0.02 0.03 0.03 0.03 0.03 0.03 0.04 0.04 0.04 0.04 0.04 0.04 0.05 0.05 0.05 0.05 0.06 0.06 0.06 0.06 0.06 0.06 0.06 0.05 0.05 0.05 0.05 0.06 0.06 0.06
0.01 0.01 0.02 0.02 0.02 0.02 0.02 0.02 0.02 0.02 0.02 0.02 0.02 0.03 0.03 0.03 0.03 0.03 0.03 0.03 0.03 0.03 0.03 0.04 0.04 0.04 0.04 0.05 0.05 0.05 0.05 0.05 0.05 0.05 0.06 0.06 0.05 0.05 0.05 0.05 0.05 0.05 0.05
0.01 0.01 0.01 0.02 0.02 0.02 0.02 0.02 0.02 0.02 0.02 0.02 0.02 0.02 0.03 0.03 0.03 0.03 0.03 0.03 0.04 0.04 0.04 0.03 0.03 0.03 0.03 0.04 0.04 0.05 0.05 0.05 0.05 0.06 0.06 0.06 0.06 0.05 0.05 0.05 0.05 0.05 0.05
MSLP
1028.29 1028.64 1028.93 1029.16 1029.31 1029.38 1029.38 1029.33 1029.24 1029.12 1028.99 1028.85 1028.71 1028.56 1028.39 1028.19 1027.96 1027.69 1027.39 1027.06 1026.70 1026.33 1025.96 1025.59 1025.22 1024.86 1024.50 1024.12 1023.72 1023.28 1022.79 1022.24 1021.64 1020.98 1020.28 1019.55 1018.79 1018.03 1017.28 1016.53 1015.79 1015.05 1014.29
1027.69 1028.06 1028.38 1028.64 1028.82 1028.93 1028.95 1028.92 1028.84 1028.73 1028.60 1028.46 1028.32 1028.17 1028.01 1027.83 1027.61 1027.36 1027.08 1026.76 1026.40 1026.02 1025.63 1025.24 1024.85 1024.48 1024.12 1023.76 1023.39 1023.00 1022.58 1022.10 1021.56 1020.96 1020.29 1019.56 1018.79 1017.99 1017.17 1016.34 1015.52 1014.69 1013.86
1027.03 1027.44 1027.79 1028.08 1028.29 1028.42 1028.48 1028.46 1028.40 1028.30 1028.17 1028.04 1027.90 1027.76 1027.61 1027.44 1027.24 1027.01 1026.74 1026.42 1026.06 1025.68 1025.27 1024.86 1024.46 1024.07 1023.71 1023.37 1023.04 1022.70 1022.33 1021.92 1021.45 1020.90 1020.27 1019.56 1018.79 1017.96 1017.09 1016.21 1015.32 1014.41 1013.50
1026.36 1026.79 1027.17 1027.49 1027.73 1027.89 1027.97 1027.98 1027.93 1027.84 1027.72 1027.59 1027.46 1027.32 1027.17 1027.02 1026.83 1026.61 1026.35 1026.04 1025.69 1025.30 1024.88 1024.46 1024.05 1023.66 1023.30 1022.97 1022.67 1022.37 1022.05 1021.69 1021.27 1020.77 1020.18 1019.50 1018.74 1017.92 1017.04 1016.13 1015.19 1014.24 1013.27
1025.69 1026.16 1026.57 1026.91 1027.18 1027.36 1027.45 1027.48 1027.44 1027.36 1027.25 1027.12 1026.99 1026.85 1026.71 1026.55 1026.37 1026.16 1025.90 1025.60 1025.25 1024.86 1024.45 1024.03 1023.62 1023.24 1022.88 1022.57 1022.28 1022.00 1021.71 1021.38 1020.99 1020.53 1019.98 1019.34 1018.61 1017.82 1016.96 1016.06 1015.13 1014.16 1013.16
1025.10 1025.58 1026.01 1026.37 1026.65 1026.84 1026.95 1026.98 1026.95 1026.88 1026.77 1026.64 1026.50 1026.36 1026.20 1026.04 1025.85 1025.63 1025.37 1025.07 1024.72 1024.35 1023.95 1023.55 1023.15 1022.78 1022.44 1022.13 1021.84 1021.57 1021.28 1020.96 1020.59 1020.15 1019.63 1019.03 1018.36 1017.62 1016.83 1015.98 1015.09 1014.15 1013.15
1024.60 1025.09 1025.53 1025.89 1026.16 1026.35 1026.46 1026.49 1026.46 1026.39 1026.27 1026.14 1025.99 1025.83 1025.65 1025.46 1025.25 1025.02 1024.75 1024.45 1024.11 1023.75 1023.38 1023.00 1022.63 1022.28 1021.95 1021.64 1021.35 1021.06 1020.76 1020.43 1020.05 1019.62 1019.12 1018.57 1017.96 1017.30 1016.59 1015.84 1015.03 1014.15 1013.17
1024.20 1024.69 1025.10 1025.44 1025.70 1025.87 1025.97 1025.99 1025.96 1025.88 1025.76 1025.62 1025.45 1025.26 1025.06 1024.84 1024.60 1024.34 1024.05 1023.75 1023.42 1023.08 1022.73 1022.38 1022.04 1021.72 1021.41 1021.10 1020.80 1020.49 1020.16 1019.79 1019.39 1018.95 1018.48 1017.96 1017.42 1016.85 1016.25 1015.60 1014.89 1014.09 1013.18
1023.87 1024.32 1024.71 1025.01 1025.23 1025.37 1025.45 1025.46 1025.42 1025.33 1025.21 1025.05 1024.87 1024.66 1024.43 1024.18 1023.90 1023.61 1023.30 1022.98 1022.66 1022.33 1022.02 1021.71 1021.41 1021.11 1020.82 1020.52 1020.20 1019.86 1019.50 1019.10 1018.67 1018.21 1017.74 1017.27 1016.79 1016.31 1015.81 1015.27 1014.66 1013.95 1013.09
1023.56 1023.95 1024.28 1024.52 1024.70 1024.80 1024.85 1024.85 1024.80 1024.72 1024.60 1024.44 1024.25 1024.02 1023.76 1023.48 1023.17 1022.84 1022.51 1022.18 1021.86 1021.55 1021.26 1020.99 1020.73 1020.47 1020.20 1019.91 1019.59 1019.22 1018.83 1018.39 1017.93 1017.46 1017.00 1016.55 1016.12 1015.71 1015.30 1014.85 1014.32 1013.68 1012.87
1023.20 1023.51 1023.76 1023.94 1024.06 1024.12 1024.14 1024.13 1024.09 1024.01 1023.90 1023.76 1023.57 1023.33 1023.06 1022.75 1022.41 1022.06 1021.71 1021.36 1021.05 1020.76 1020.50 1020.26 1020.04 1019.81 1019.57 1019.30 1018.98 1018.61 1018.19 1017.74 1017.26 1016.78 1016.32 1015.89 1015.49 1015.13 1014.76 1014.36 1013.89 1013.28 1012.49
1022.74 1022.97 1023.12 1023.23 1023.29 1023.31 1023.31 1023.30 1023.26 1023.21 1023.12 1022.99 1022.82 1022.59 1022.31 1021.99 1021.64 1021.27 1020.90 1020.55 1020.24 1019.97 1019.73 1019.53 1019.35 1019.16 1018.96 1018.71 1018.41 1018.05 1017.63 1017.17 1016.69 1016.21 1015.75 1015.33 1014.95 1014.60 1014.25 1013.86 1013.38 1012.76 1011.94
1022.20 1022.31 1022.38 1022.41 1022.41 1022.40 1022.38 1022.36 1022.34 1022.31 1022.25 1022.16 1022.01 1021.80 1021.53 1021.21 1020.85 1020.47 1020.10 1019.75 1019.45 1019.20 1018.99 1018.82 1018.68 1018.54 1018.38 1018.17 1017.90 1017.57 1017.17 1016.73 1016.26 1015.79 1015.34 1014.92 1014.54 1014.17 1013.79 1013.36 1012.82 1012.13 1011.25
1021.59 1021.60 1021.58 1021.53 1021.48 1021.43 1021.40 1021.39 1021.38 1021.38 1021.35 1021.28 1021.16 1020.97 1020.71 1020.40 1020.05 1019.68 1019.32 1018.98 1018.69 1018.46 1018.29 1018.16 1018.06 1017.96 1017.84 1017.68 1017.45 1017.16 1016.81 1016.40 1015.97 1015.52 1015.08 1014.66 1014.26 1013.84 1013.40 1012.88 1012.24 1011.44 1010.44
1021.01 1020.92 1020.81 1020.69 1020.59 1020.51 1020.46 1020.45 1020.46 1020.46 1020.46 1020.41 1020.30 1020.13 1019.89 1019.60 1019.26 1018.90 1018.56 1018.24 1017.98 1017.78 1017.64 1017.55 1017.48 1017.43 1017.36 1017.24 1017.07 1016.83 1016.53 1016.17 1015.78 1015.36 1014.94 1014.52 1014.08 1013.61 1013.07 1012.44 1011.66 1010.71 1009.56
1020.53 1020.36 1020.17 1019.99 1019.84 1019.73 1019.67 1019.64 1019.65 1019.65 1019.65 1019.60 1019.50 1019.34 1019.11 1018.82 1018.50 1018.17 1017.85 1017.56 1017.33 1017.17 1017.06 1017.01 1016.98 1016.96 1016.93 1016.86 1016.73 1016.55 1016.30 1016.00 1015.65 1015.28 1014.88 1014.44 1013.97 1013.43 1012.79 1012.02 1011.09 1009.97 1008.65
1020.24 1019.98 1019.73 1019.50 1019.31 1019.17 1019.09 1019.04 1019.02 1019.01 1018.98 1018.92 1018.80 1018.63 1018.39 1018.12 1017.81 1017.50 1017.21 1016.97 1016.77 1016.64 1016.57 1016.55 1016.56 1016.57 1016.57 1016.53 1016.44 1016.30 1016.10 1015.84 1015.54 1015.20 1014.81 1014.37 1013.86 1013.25 1012.51 1011.61 1010.53 1009.24 1007.76
1020.16 1019.84 1019.54 1019.27 1019.05 1018.88 1018.76 1018.68 1018.62 1018.56 1018.49 1018.39 1018.24 1018.03 1017.79 1017.51 1017.22 1016.93 1016.67 1016.46 1016.31 1016.22 1016.19 1016.19 1016.22 1016.25 1016.27 1016.24 1016.18 1016.06 1015.89 1015.67 1015.40 1015.07 1014.70 1014.24 1013.70 1013.02 1012.20 1011.18 1009.96 1008.53 1006.91
1020.26 1019.90 1019.57 1019.28 1019.03 1018.83 1018.67 1018.55 1018.44 1018.32 1018.19 1018.03 1017.82 1017.58 1017.31 1017.02 1016.73 1016.47 1016.25 1016.08 1015.97 1015.91 1015.90 1015.92 1015.97 1016.00 1016.01 1015.99 1015.92 1015.80 1015.64 1015.42 1015.16 1014.85 1014.47 1014.01 1013.43 1012.70 1011.80 1010.70 1009.38 1007.85 1006.12
1020.50 1020.12 1019.77 1019.47 1019.20 1018.97 1018.78 1018.60 1018.43 1018.25 1018.05 1017.81 1017.55 1017.26 1016.95 1016.65 1016.37 1016.13 1015.93 1015.80 1015.72 1015.69 1015.70 1015.73 1015.77 1015.79 1015.78 1015.73 1015.63 1015.50 1015.31 1015.09 1014.82 1014.49 1014.10 1013.61 1013.01 1012.24 1011.29 1010.13 1008.75 1007.16 1005.38
1020.81 1020.42 1020.07 1019.76 1019.48 1019.23 1019.00 1018.78 1018.54 1018.29 1018.01 1017.71 1017.38 1017.04 1016.71 1016.39 1016.11 1015.89 1015.71 1015.60 1015.55 1015.53 1015.55 1015.57 1015.59 1015.57 1015.53 1015.43 1015.29 1015.11 1014.89 1014.63 1014.32 1013.97 1013.55 1013.04 1012.40 1011.61 1010.63 1009.44 1008.04 1006.44 1004.66
1021.11 1020.73 1020.39 1020.08 1019.79 1019.53 1019.26 1018.99 1018.70 1018.38 1018.04 1017.67 1017.29 1016.91 1016.54 1016.21 1015.94 1015.71 1015.56 1015.46 1015.41 1015.40 1015.40 1015.40 1015.38 1015.32 1015.21 1015.06 1014.85 1014.61 1014.33 1014.02 1013.67 1013.28 1012.82 1012.27 1011.61 1010.79 1009.80 1008.61 1007.23 1005.65 1003.92
1021.36 1021.00 1020.67 1020.36 1020.07 1019.78 1019.49 1019.18 1018.84 1018.46 1018.07 1017.65 1017.22 1016.81 1016.43 1016.09 1015.80 1015.58 1015.43 1015.33 1015.27 1015.24 1015.21 1015.16 1015.09 1014.96 1014.79 1014.56 1014.29 1013.98 1013.63 1013.25 1012.85 1012.40 1011.90 1011.32 1010.62 1009.79 1008.80 1007.63 1006.29 1004.78 1003.13
1021.56 1021.21 1020.89 1020.58 1020.28 1019.97 1019.65 1019.30 1018.92 1018.51 1018.07 1017.62 1017.17 1016.73 1016.34 1015.99 1015.69 1015.46 1015.29 1015.17 1015.08 1015.01 1014.92 1014.82 1014.68 1014.48 1014.23 1013.93 1013.59 1013.20 1012.79 1012.35 1011.88 1011.38 1010.83 1010.21 1009.48 1008.64 1007.65 1006.52 1005.23 1003.80 1002.27
1021.72 1021.38 1021.05 1020.73 1020.42 1020.09 1019.74 1019.36 1018.95 1018.51 1018.05 1017.58 1017.11 1016.67 1016.25 1015.89 1015.58 1015.33 1015.12 1014.96 1014.82 1014.68 1014.53 1014.35 1014.13 1013.86 1013.54 1013.17 1012.75 1012.30 1011.83 1011.33 1010.81 1010.25 1009.65 1008.98 1008.23 1007.37 1006.40 1005.29 1004.06 1002.73 1001.32
1021.87 1021.51 1021.17 1020.84 1020.50 1020.15 1019.77 1019.37 1018.94 1018.48 1018.01 1017.52 1017.05 1016.60 1016.17 1015.79 1015.45 1015.16 1014.91 1014.68 1014.47 1014.25 1014.02 1013.76 1013.46 1013.11 1012.72 1012.28 1011.81 1011.31 1010.78 1010.24 1009.66 1009.06 1008.41 1007.71 1006.92 1006.05 1005.08 1004.01 1002.84 1001.60 1000.31
Thickness
5366 5366 5368 5370 5373 5376 5381 5385 5389 5392 5396 5402 5407 5412 5417 5422 5426 5429 5432 5436 5439 5442 5446 5449 5453 5456 5459 5463 5466 5470 5474 5477 5481 5487 5491 5495 5498 5502 5506 5509 5513 5516 5520
5353 5354 5355 5356 5359 5363 5367 5371 5374 5378 5383 5387 5393 5398 5403 5407 5411 5415 5419 5422 5426 5430 5433 5435 5439 5442 5445 5448 5452 5456 5461 5465 5468 5472 5477 5480 5484 5489 5493 5496 5500 5504 5507
5341 5341 5342 5343 5345 5349 5353 5357 5360 5364 5369 5373 5378 5384 5388 5393 5397 5401 5405 5409 5413 5417 5420 5423 5426 5429 5432 5435 5439 5442 5447 5452 5456 5459 5464 5468 5471 5475 5479 5483 5486 5490 5494
5330 5329 5329 5331 5333 5336 5340 5344 5347 5351 5354 5359 5364 5369 5374 5378 5383 5387 5391 5396 5400 5404 5408 5411 5414 5417 5420 5423 5426 5429 5433 5438 5443 5447 5451 5455 5459 5463 5466 5469 5473 5476 5480
5319 5318 5318 5319 5321 5325 5328 5331 5335 5338 5341 5345 5350 5355 5359 5363 5369 5374 5378 5383 5387 5392 5396 5399 5402 5405 5408 5411 5415 5418 5421 5425 5429 5434 5439 5442 5446 5450 5454 5457 5460 5463 5467
5309 5308 5308 5309 5311 5313 5316 5319 5322 5326 5329 5333 5338 5341 5345 5351 5355 5361 5365 5369 5374 5378 5383 5386 5389 5393 5396 5400 5404 5408 5411 5414 5418 5423 5427 5432 5436 5439 5443 5446 5448 5451 5455
5298 5298 5298 5299 5301 5303 5305 5308 5310 5313 5317 5321 5325 5328 5332 5337 5341 5347 5352 5357 5361 5366 5369 5374 5378 5382 5385 5388 5392 5396 5400 5405 5410 5413 5418 5423 5426 5430 5432 5434 5437 5440 5445
5287 5287 5288 5289 5291 5293 5295 5296 5299 5301 5304 5308 5312 5315 5320 5324 5329 5334 5339 5344 5349 5353 5357 5361 5366 5370 5374 5377 5381 5385 5390 5395 5400 5404 5409 5414 5416 5419 5422 5425 5427 5429 5432
5276 5276 5277 5278 5280 5282 5284 5286 5288 5290 5293 5296 5300 5304 5308 5313 5317 5322 5327 5332 5337 5342 5346 5351 5355 5361 5365 5369 5372 5376 5380 5384 5389 5393 5398 5402 5406 5409 5411 5412 5414 5417 5420
5264 5266 5267 5268 5269 5271 5273 5275 5277 5279 5282 5286 5290 5293 5297 5301 5306 5311 5316 5321 5326 5331 5336 5342 5346 5351 5355 5359 5362 5366 5370 5375 5378 5382 5387 5391 5395 5398 5401 5404 5406 5408 5409
5254 5256 5257 5257 5258 5260 5262 5265 5267 5269 5272 5276 5280 5284 5288 5292 5296 5301 5306 5310 5315 5320 5326 5331 5337 5341 5346 5349 5353 5357 5362 5365 5368 5372 5376 5381 5384 5387 5390 5393 5396 5399 5400
5244 5246 5247 5249 5249 5251 5253 5255 5257 5259 5262 5266 5270 5275 5279 5282 5286 5291 5297 5302 5306 5311 5316 5321 5326 5331 5336 5340 5344 5348 5352 5355 5358 5362 5367 5371 5374 5377 5380 5382 5385 5387 5391
5235 5236 5238 5240 5240 5241 5243 5245 5247 5249 5252 5255 5259 5264 5269 5273 5278 5283 5289 5294 5298 5302 5307 5313 5317 5322 5326 5330 5335 5339 5342 5345 5348 5353 5358 5361 5364 5367 5369 5371 5372 5375 5377
5226 5227 5229 5231 5232 5233 5235 5236 5238 5240 5242 5246 5250 5254 5259 5264 5269 5274 5280 5285 5290 5294 5299 5304 5308 5312 5317 5322 5326 5329 5332 5336 5340 5344 5347 5350 5353 5355 5359 5361 5362 5364 5365
5217 5218 5220 5222 5223 5225 5227 5228 5230 5232 5233 5237 5241 5245 5249 5255 5260 5265 5271 5276 5281 5286 5291 5295 5299 5303 5308 5312 5316 5320 5324 5327 5330 5334 5336 5339 5342 5346 5349 5351 5353 5354 5356
5208 5209 5210 5212 5214 5216 5219 5221 5223 5225 5228 5231 5234 5238 5242 5247 5252 5257 5263 5268 5273 5278 5282 5286 5291 5295 5299 5303 5307 5311 5315 5318 5321 5324 5327 5330 5333 5336 5339 5341 5344 5345 5347
5198 5199 5200 5203 5205 5208 5210 5212 5217 5221 5222 5224 5227 5231 5235 5240 5245 5249 5254 5260 5264 5269 5273 5277 5281 5286 5290 5294 5297 5301 5305 5309 5312 5315 5318 5321 5324 5327 5330 5333 5335 5336 5337
5190 5191 5192 5194 5196 5198 5200 5203 5206 5209 5214 5217 5219 5223 5227 5232 5236 5240 5245 5250 5255 5259 5263 5267 5272 5276 5280 5284 5288 5292 5296 5300 5303 5307 5310 5313 5315 5319 5322 5324 5326 5328 5329
5182 5183 5184 5186 5188 5190 5192 5194 5197 5199 5203 5207 5211 5215 5219 5223 5228 5231 5235 5239 5244 5248 5253 5257 5261 5266 5270 5274 5279 5283 5287 5291 5295 5298 5301 5304 5307 5310 5312 5315 5317 5319 5320
5174 5176 5177 5178 5180 5182 5184 5186 5188 5191 5194 5197 5201 5205 5209 5214 5217 5222 5225 5229 5233 5238 5243 5247 5252 5256 5260 5264 5269 5274 5278 5282 5286 5290 5293 5296 5299 5302 5304 5307 5309 5311 5312
5166 5168 5170 5170 5171 5173 5175 5177 5179 5182 5185 5188 5192 5195 5200 5203 5207 5211 5215 5219 5223 5228 5233 5237 5242 5247 5251 5255 5260 5265 5270 5274 5278 5281 5285 5288 5291 5294 5296 5298 5301 5302 5303
5159 5159 5161 5162 5163 5165 5167 5169 5171 5173 5176 5180 5184 5188 5192 5195 5198 5202 5206 5211 5214 5219 5223 5228 5233 5238 5243 5247 5251 5256 5261 5266 5270 5273 5276 5280 5283 5286 5288 5290 5292 5294 5294
5151 5152 5153 5154 5156 5158 5160 5161 5163 5165 5168 5171 5175 5179 5183 5186 5190 5194 5198 5202 5206 5211 5215 5220 5224 5229 5234 5239 5243 5248 5253 5258 5262 5266 5269 5273 5275 5278 5279 5282 5284 5285 5285
5143 5144 5145 5147 5148 5150 5152 5153 5155 5158 5161 5164 5167 5170 5174 5177 5181 5186 5190 5194 5199 5203 5208 5212 5217 5221 5226 5231 5236 5241 5245 5250 5254 5258 5262 5265 5267 5269 5271 5272 5274 5275 5276
5136 5136 5138 5139 5141 5143 5145 5146 5149 5151 5154 5157 5160 5163 5166 5170 5174 5178 5183 5187 5192 5196 5201 5206 5210 5215 5220 5224 5229 5234 5239 5243 5246 5250 5253 5256 5259 5261 5262 5264 5265 5266 5267
5128 5129 5131 5132 5134 5136 5138 5140 5142 5144 5147 5150 5153 5156 5160 5163 5168 5172 5177 5181 5186 5191 5196 5200 5205 5209 5214 5218 5223 5228 5232 5236 5240 5243 5245 5248 5250 5252 5254 5255 5256 5257 5258